sat.trackr.live / text

‹ back to catalog

STARLINK-5638

NORAD 55426 · 2023-014AM

PAYLOAD ACTIVE UNKNOWN

§ Identity

Operator
Country
US
Launch date
2023-01-31
Launch site
AFWTR
Launch vehicle
Mass (kg)
RCS (m²)

Purposes: comms

External: N2YO · Heavens-Above · Gunter

§ Orbital elements

Epoch: 2026-05-25T00:41:12.012000Z

Period
96.11 min
Inclination
69.9992°
Eccentricity
0.0003312
Mean motion
14.98329414 rev/d
Perigee alt
569.8 km
Apogee alt
574.4 km
Semi-major
6,950.2 km
B*
1.5391e-6
RAAN
252.1109°
Arg perigee
269.7605°
Mean anomaly
90.3174°
Rev number
18,299

§ Raw data

STARLINK-56381 55426U 23014AM  26145.02861125 -.00000075  00000+0  15391-5 0  99912 55426  69.9992 252.1109 0003312 269.7605  90.3174 14.98329414182990

JSON: /api/v1/satellites/55426 · /tle

For live sub-satellite position, see the globe view (requires WebGL).

§ Visibility from observer

Set your observer location to see the next 7 days of passes ≥ 10°. The values pass through the URL so the page stays shareable.

No JS? Fill the form by hand. The geolocation button needs JavaScript.